TimeMST,TemperatureF,Dew PointF,Humidity,Sea Level PressureIn,VisibilityMPH,Wind Direction,Wind SpeedMPH,Gust SpeedMPH,PrecipitationIn,Events,Conditions,WindDirDegrees,DateUTC
12:55 AM,23.7,19.6,84,29.95,10.0,SSW,5.8,-,N/A,,Overcast,210,2012-12-11 07:55:00
1:55 AM,24.3,19.6,82,29.94,10.0,SSW,5.8,-,N/A,,Overcast,200,2012-12-11 08:55:00
2:55 AM,24.3,18.0,77,29.93,10.0,WSW,5.8,-,N/A,,Mostly Cloudy,240,2012-12-11 09:55:00
3:55 AM,17.8,13.6,84,29.94,10.0,West,6.9,-,N/A,,Clear,270,2012-12-11 10:55:00
4:55 AM,18.7,12.9,78,29.93,10.0,WSW,5.8,-,N/A,,Partly Cloudy,250,2012-12-11 11:55:00
5:55 AM,22.1,13.8,70,29.94,10.0,WSW,6.9,-,N/A,,Partly Cloudy,240,2012-12-11 12:55:00
6:55 AM,23.5,14.4,68,29.92,10.0,West,10.4,-,N/A,,Partly Cloudy,270,2012-12-11 13:55:00
7:55 AM,23.7,13.8,66,29.92,10.0,WSW,8.1,-,N/A,,Clear,240,2012-12-11 14:55:00
8:55 AM,31.1,15.3,52,29.90,10.0,WSW,9.2,-,N/A,,Clear,240,2012-12-11 15:55:00
9:55 AM,36.3,13.6,39,29.89,10.0,West,17.3,-,N/A,,Clear,260,2012-12-11 16:55:00
10:55 AM,39.6,11.3,31,29.84,10.0,West,16.1,-,N/A,,Clear,260,2012-12-11 17:55:00
11:55 AM,40.6,10.0,29,29.81,10.0,SW,12.7,-,N/A,,Scattered Clouds,230,2012-12-11 18:55:00
12:55 PM,40.6,10.9,30,29.78,10.0,West,9.2,-,N/A,,Scattered Clouds,260,2012-12-11 19:55:00
1:55 PM,41.4,11.5,30,29.76,10.0,WSW,9.2,-,N/A,,Mostly Cloudy,240,2012-12-11 20:55:00
2:55 PM,38.8,12.4,34,29.74,10.0,South,4.6,-,N/A,,Mostly Cloudy,170,2012-12-11 21:55:00
3:55 PM,38.5,14.2,37,29.74,10.0,South,9.2,-,N/A,,Mostly Cloudy,180,2012-12-11 22:55:00
4:55 PM,36.9,15.1,41,29.73,10.0,South,11.5,-,N/A,,Mostly Cloudy,190,2012-12-11 23:55:00
5:55 PM,34.3,16.2,47,29.71,10.0,South,8.1,-,N/A,,Scattered Clouds,180,2012-12-12 00:55:00
6:55 PM,31.6,16.5,54,29.70,10.0,SSW,6.9,-,N/A,,Partly Cloudy,200,2012-12-12 01:55:00
7:55 PM,31.8,16.5,53,29.70,10.0,SSW,9.2,-,N/A,,Scattered Clouds,200,2012-12-12 02:55:00
8:55 PM,33.1,17.8,53,29.67,10.0,South,4.6,-,N/A,,Overcast,170,2012-12-12 03:55:00
9:55 PM,33.1,18.3,55,29.65,10.0,South,4.6,-,N/A,,Overcast,180,2012-12-12 04:55:00
10:55 PM,30.4,18.3,61,29.65,10.0,Calm,Calm,-,N/A,,Overcast,0,2012-12-12 05:55:00
11:55 PM,31.5,16.9,55,29.64,10.0,WSW,5.8,-,N/A,,Overcast,250,2012-12-12 06:55:00